COSMOS 2251 DEB

Last updated on Wed Jun 28 2023 00:02:23 GMT+0000 (Coordinated Universal Time)

1 47119U 93036BYM 23177.85042918 .00010561 00000+0 48099-2 0 9994 2 47119 74.0877 346.5357 0176856 246.0302 181.6099 14.13795429581474
UTC large
Height (km)
Speed (km/s)
/
Latitude / Longitude
Inclination (degrees)
Orbital Period (minutes)
Azimuth
Elevation
Range (km)
Doppler Factor

Next 0 passes for location: London (51.5072 / 0.1276)

Sorry there are no passes over London.
COSMOS 2251 DEB